User: anonymous   Login
Location: Unspecified
(0.0000°N, 0.0000°E)
Time: 20:48:56
(UTC+01:00)
Language:

Cosmos 1933 - Orbit

View from above orbital plane
View from above orbital plane
View from above satellite
View from above satellite

Ground track
Ground track

The orbit data is extracted from the following two-line orbital elements,

1 18958U 88020A   17346.39262290  .00000675  00000-0  47567-4 0  9994
2 18958  82.5295 291.8710 0012812  42.1796 318.0413 15.03362119618304
Epoch (UTC): 12 December 2017 09:25:22
Eccentricity: 0.0012812
inclination: 82.5295°
perigee height: 547 km
apogee height: 565 km
right ascension of ascending node: 291.8710°
argument of perigee: 42.1796°
revolutions per day: 15.03362119
mean anomaly at epoch: 318.0413°
orbit number at epoch: 61830

The dashed part of the orbit path shows where the satellite is in the earth's shadow,  

DLR